Location: Utrecht
(52.0907°N, 5.1214°E)
Time: 22:17:07
(UTC+01:00)

N. Korean satellite - Visible Passes

Search period start: 19 January 2022 00:00
Search period end: 29 January 2022 00:00
Orbit: 446 x 491 km, 97.3° (Epoch: 19 January)

Date Brightness Start Highest point End Pass type
(mag) Time Alt. Az. Time Alt. Az. Time Alt. Az.
19 Jan 8.3 05:30:25 10° NNE 05:33:16 32° ENE 05:33:16 32° ENE visible
19 Jan 7.7 07:03:50 10° N 07:06:47 24° WNW 07:07:20 23° W visible
19 Jan 9.1 17:43:00 10° SSW 17:45:55 25° W 17:48:52 10° NW visible
20 Jan 9.4 05:01:56 10° NE 05:04:11 17° E 05:04:11 17° E visible
20 Jan 6.8 06:34:20 10° N 06:37:50 46° WNW 06:38:14 44° W visible
21 Jan 6.5 06:05:06 10° NNE 06:08:45 84° ESE 06:09:08 69° S visible
21 Jan 8.5 07:39:53 10° NW 07:41:20 12° WNW 07:42:48 10° W visible
21 Jan 10.0 18:20:01 10° WSW 18:21:06 11° W 18:22:12 10° WNW visible
22 Jan 7.9 05:36:05 10° NNE 05:39:31 39° E 05:40:02 37° ESE visible
22 Jan 7.8 07:09:39 10° NNW 07:12:28 21° WNW 07:14:05 16° W visible
22 Jan 9.4 17:48:51 10° SW 17:51:38 22° W 17:54:28 10° NW visible
23 Jan 9.2 05:07:25 10° NE 05:10:09 20° E 05:10:54 19° ESE visible
23 Jan 7.0 06:40:02 10° N 06:43:28 40° WNW 06:44:58 26° WSW visible
24 Jan 10.0 04:40:13 10° E 04:40:39 10° E 04:41:05 10° E visible
24 Jan 6.4 06:10:41 10° NNE 06:14:20 84° WNW 06:15:50 34° SSW visible
24 Jan 8.6 07:45:56 10° NW 07:46:51 11° WNW 07:47:46 10° WNW visible
25 Jan 7.6 05:41:32 10° NNE 05:45:04 45° E 05:46:42 26° SSE visible
25 Jan 8.0 07:15:18 10° NNW 07:17:56 19° WNW 07:20:34 10° WSW visible
25 Jan 9.6 17:54:32 10° SW 17:57:09 20° W 17:59:48 10° NW visible
26 Jan 9.0 05:12:43 10° NE 05:15:39 22° E 05:17:33 15° SE visible
26 Jan 7.1 06:45:32 10° N 06:48:53 35° WNW 06:51:37 14° SW visible
27 Jan 9.9 04:44:45 10° ENE 04:46:05 12° E 04:47:25 10° ESE visible
27 Jan 6.4 06:16:03 10° N 06:19:42 74° WNW 06:22:29 16° SSW visible
28 Jan 7.3 05:46:48 10° NNE 05:50:23 52° E 05:53:21 14° S visible
28 Jan 8.1 07:20:44 10° NNW 07:23:10 17° WNW 07:25:37 10° WSW visible
28 Jan 9.7 18:00:01 10° SW 18:02:27 17° W 18:04:55 10° NW visible
